DECAYED

STARLINK-2477, 48322 (Decayed)

Orbit data source: Space-Track

STARLINK-2477, 48322 was a payload satellite owned by SpaceX/Seattle (US) in LEO that was launched on Thu, 29 Apr 2021 UTC via an FALCON 9 launch vehicle from the Air Force Eastern Test Range (AFETR). Payload-class satellites include a variety of spacecraft equipped with specific instruments for various scientific and technological missions. These include communications satellites like Starlink; space stations such as the ISS; scientific satellites like the Hubble; Earth observation satellites from companies like Planet Labs, Umbra, and HawkEye 360; GPS; miniature CubeSats for education and research; and military/defense satellites.

Not visible in the next 10 days
Identifier
48322, 2021-036AY
Orbit
Decayed
Country
Flag of USUS
Related business
Manufacturer
SpaceX/Seattle
Mission
Decayed Commercial Communications
Bus & Motor
STARLINK, Unknown motor
Mass
260 kg wet, ~248 kg dry
Launch date (UTC)
2021-04-29 (5 years ago)
Launch vehicle
FALCON 9
Launch site
Air Force Eastern Test Range (AFETR)
Object type
Payload
Rocket body
Debris
Shape & HBR
Box + 1 Pan, 10.1 m
Radar Cross Section
13.562 m², Large (>1 m²)

Expand to show TLE details & history
Last TLE update: 1 year ago

TLE from 1 year ago
0 STARLINK-2477
1 48322U 21036AY  25008.27721581  .09608969  12267-4  10556-2 0  9997
2 48322  53.0231 191.4253 0005150 271.5434 264.2297 16.36454122204773
Epoch: 2025-01-08T06:39Z
TLE epoch observation values (Epoch: 2025-01-08T06:39:11.445Z)
Latitude
3.36089°
Longitude
161.03563°
Altitude
176.144 km
Speed
7.802 km/s
True Right ascension
00h 35m 37s
True Declination
3° 20' 21"
Sunlit
Object was in daylight at epoch
Visualization orbit readout
Latitude
Unknown
Longitude
Unknown
Altitude
Unknown
Speed
Unknown
Apparent Right ascension
Unknown
Apparent Declination
Unknown
Sunlit
N/A
Visualization observer readout
Local Sidereal Time
21:38:18
Azimuth
Unknown
Elevation
Unknown
Doppler factor
Unknown
Orbital elements
Apogee altitude
178.918 km
Perigee altitude
172.168 km
Semi-major axis
6,553.68 km
Eccentricity
0.00052
Inclination
53.0231°
RAAN
191.4253°
Arg. of periapsis
271.5434°
True anomaly
264.17099°
Mean anomaly
264.2297°
Eccentric anomaly
264.20034°
Mean motion
4.09087 °/min
Orbital period
88 mins
BSTAR
0.0010556
Loading maneuver chart data...
Computing Atmospheric mass density...

Documentation

Showing up to 5 results
|